C/2020 K1 ( PanSTARRS )

Japanese version
Home page
Updated on July 22, 2020

---------------------------------------------------------------------

* Profile

Discovery Date May 17, 2020
Magnitude 20.6 mag
Discoverer Pan-STARRS2 1.8-m Ritchey-Chretien reflector at Haleakala

* Pictures

* Orbital Elements

Epoch 2023 May 16.0 TT = JDT 2460080.5
T 2023 May  9.40376 TT                                  Rudenko
q   3.0736303            (2000.0)            P               Q
z  +0.0001439      Peri.  213.99729     +0.06626811     -0.03775070
 +/-0.0000567      Node    94.36149     -0.53580844     +0.84163906
e   0.9995578      Incl.   89.66923     -0.84173503     -0.53871938
From 116 observations 2020 Apr. 17-July 13, mean residual 0".3.

* Finding Charts

* Magnitudes Graph

        m1 = 5.3 + 5 log d + 10.0 log r

---------------------------------------------------------------------

The orbital elements are published on M.P.E.C. 2020-O07.
The charts are made with StellaNavigator Ver.10 (AstroArts).
The magnitudes graphs are made with Comet for Windows.

---------------------------------------------------------------------

Copyright(C) Seiichi Yoshida (comet@aerith.net). All rights reserved.